Lapse_Rate
7.4 7.6 7.5 7.6 8.1 8.6 8.4 8.4 8.3 8.9 8.6 8.6 8.9 9.1 9.1 8.5 8.9 8.4 7.4 7.0 6.5 6.5 6.5 7.6 7.4 7.0 6.7 6.7 6.5 6.3 6.3 6.1 6.5 6.5 6.5 6.5 6.5 6.5 6.5 6.5 6.5 6.5 6.5 6.5 6.5 6.5 6.5 5.7 6.2 6.5 6.3 4.8 3.6 3.3
7.3 7.4 7.6 7.9 7.9 7.9 8.4 8.7 8.5 8.4 8.7 8.5 8.7 8.9 9.1 8.5 8.9 9.2 7.3 7.5 7.1 7.0 6.3 6.6 6.2 6.8 6.8 7.5 6.4 6.5 6.5 6.4 6.2 6.5 6.5 6.5 6.5 6.5 6.5 6.5 6.5 6.5 6.5 6.5 6.5 6.5 6.3 5.8 5.7 3.4 2.1 2.5 2.8 1.4
7.4 7.4 7.4 7.5 7.7 7.8 7.6 8.9 8.7 8.7 8.5 8.8 8.8 8.8 9.1 8.6 9.0 9.3 7.3 6.7 6.5 7.1 6.8 6.7 6.5 3.9 7.1 6.6 6.9 6.6 6.7 6.8 4.8 3.5 6.1 6.5 6.5 6.5 6.5 6.5 6.5 6.5 6.4 6.5 6.5 6.5 6.5 5.6 3.5 1.8 1.7 0.8 0.7 0.5
7.1 7.2 7.3 7.6 7.7 8.4 8.2 8.5 8.5 8.6 8.9 8.6 8.9 9.0 8.7 8.7 9.1 9.2 7.1 6.3 6.7 5.8 6.5 5.8 4.2 3.9 3.5 5.3 5.9 5.7 6.5 6.5 5.1 4.1 6.2 6.5 6.5 6.1 6.5 6.5 6.5 6.5 6.5 6.5 6.5 6.5 6.4 5.0 3.2 1.5 0.1 -0.2 0.4 1.3
7.4 7.3 7.4 7.7 8.4 8.1 8.3 8.3 8.5 8.6 8.1 8.4 8.3 7.1 8.4 8.5 9.3 8.6 7.1 6.4 6.9 7.0 6.5 6.3 4.9 5.1 4.2 3.3 3.7 4.5 5.4 6.5 6.3 5.8 6.5 6.5 6.4 6.3 6.5 6.5 6.5 6.3 6.5 6.5 6.5 6.0 5.9 5.4 2.3 0.8 0.3 1.0 1.2 1.0
7.7 7.7 8.2 8.1 8.3 8.1 8.0 7.4 6.8 7.0 7.9 8.2 7.6 7.9 8.4 9.0 9.1 7.2 6.2 5.1 5.8 6.8 6.4 6.5 2.8 3.6 3.3 3.1 3.1 5.1 5.3 6.5 6.4 5.6 6.4 5.0 4.2 5.8 6.5 6.5 6.5 3.7 3.0 2.0 6.4 0.7 1.3 1.6 2.5 1.8 0.4 1.5 2.3 1.3
8.6 8.1 7.8 7.7 7.7 7.8 7.9 7.9 7.6 7.4 7.2 7.2 7.8 8.7 8.6 8.3 6.8 6.8 6.7 5.5 6.5 5.8 5.5 6.5 6.5 4.1 4.2 5.3 5.2 5.2 4.6 5.3 6.2 5.3 6.5 6.4 6.1 5.3 6.5 6.5 6.5 3.7 2.5 1.2 0.6 0.9 4.2 3.8 4.0 2.2 0.9 2.7 2.4 1.4
7.9 8.0 8.1 8.1 8.0 8.2 8.2 8.3 8.5 8.6 8.5 8.4 8.1 8.1 8.0 8.0 7.9 6.9 6.5 6.8 7.2 5.1 4.8 6.5 6.5 5.2 5.0 6.4 6.4 4.5 5.4 5.0 4.8 5.7 5.8 6.5 6.1 6.3 6.5 6.5 5.8 4.8 3.8 3.1 2.4 2.3 1.6 1.2 3.0 2.9 1.6 1.9 2.1 2.5
8.0 7.9 8.0 7.8 7.8 7.8 7.8 7.9 7.9 7.9 7.9 7.9 7.9 7.9 7.1 6.2 6.8 6.2 6.2 6.1 5.4 5.8 6.5 6.5 6.5 6.5 5.4 6.3 6.0 5.8 5.3 6.5 5.3 6.5 6.5 6.2 6.5 6.5 6.5 6.6 6.2 5.4 5.1 4.3 3.4 2.5 3.8 3.1 4.0 3.9 3.2 3.2 2.6 3.4
7.5 7.5 7.8 7.9 7.8 7.8 7.9 8.1 8.1 8.0 8.0 8.1 7.6 6.5 6.2 5.8 6.0 6.3 5.7 5.9 5.5 5.3 5.2 6.5 3.0 6.5 5.8 6.5 6.5 6.5 6.4 6.5 6.5 6.5 6.2 6.5 6.5 6.8 6.3 5.8 5.2 4.6 3.9 4.2 4.6 6.6 5.8 5.9 5.1 4.6 3.7 3.3 2.6 3.4
7.2 7.3 7.3 7.4 7.6 7.7 8.1 7.4 7.1 7.0 7.0 5.9 5.7 5.9 4.6 4.9 5.2 5.2 6.4 6.5 5.9 6.5 3.4 5.7 6.2 6.5 5.8 6.5 6.5 6.3 6.5 6.5 6.5 6.5 6.5 6.5 6.5 6.5 6.2 6.0 5.5 5.2 5.0 4.6 3.7 4.6 5.1 4.2 4.0 3.7 3.7 3.4 3.9 3.4
7.0 7.1 7.1 7.7 7.6 7.5 7.1 6.9 6.5 6.6 5.6 5.2 4.9 4.1 4.3 5.2 6.2 6.5 6.5 6.2 6.5 6.5 5.9 6.5 6.4 6.2 6.0 5.9 6.5 6.4 6.5 6.5 6.5 6.5 6.5 6.5 6.5 6.7 5.8 5.0 4.4 4.2 4.1 4.3 3.9 3.8 3.8 3.6 3.4 3.0 3.5 3.9 3.0 2.5
6.7 6.8 7.3 8.1 8.1 8.0 7.6 7.2 6.8 6.9 5.8 4.9 5.1 5.9 6.3 6.3 6.5 6.5 6.5 6.5 6.5 6.5 6.4 6.4 6.5 6.3 6.1 6.1 6.5 6.5 6.5 6.5 6.5 6.5 6.5 6.5 6.8 6.4 5.8 5.1 4.6 4.2 3.6 3.4 3.4 3.0 2.8 2.8 3.2 3.4 2.6 2.2 1.4 0.9
6.9 7.1 7.1 8.4 8.2 7.9 7.7 7.2 7.2 5.3 5.5 6.2 6.4 6.5 6.5 6.5 6.5 6.5 6.5 6.5 6.5 6.5 6.6 6.4 6.5 6.5 6.4 6.5 6.5 6.5 6.5 6.5 6.5 6.5 6.5 6.5 6.5 6.1 5.7 5.3 4.5 4.2 3.7 3.4 3.2 3.1 3.1 3.5 2.7 2.2 1.5 1.4 1.1 0.7
6.6 6.9 6.8 7.7 7.6 7.5 6.6 5.4 5.5 4.3 3.0 5.5 6.2 6.5 6.5 6.6 6.4 6.6 6.5 6.7 6.5 6.6 6.5 6.4 6.4 6.5 6.5 6.5 6.5 6.5 6.5 6.5 6.5 6.5 6.5 6.6 6.0 5.5 5.0 4.4 3.9 3.4 3.0 2.9 3.1 2.5 2.0 1.7 1.1 0.7 0.8 0.9 0.9 0.5
5.9 5.8 6.8 7.1 7.3 6.2 4.1 3.4 1.6 0.9 1.5 5.4 6.2 6.5 6.6 6.5 6.5 6.6 6.7 6.6 6.8 6.0 4.8 6.2 6.5 6.5 6.5 6.5 6.5 6.5 6.5 6.5 6.5 6.5 6.8 6.3 5.5 4.9 4.4 3.9 3.5 3.2 2.8 2.5 1.9 1.3 1.1 1.0 0.2 -1.4 -1.2 -1.0 -0.6 0.2
5.2 5.4 6.9 6.2 5.3 4.4 1.7 -0.7 -1.5 1.1 2.9 5.6 6.4 6.5 6.6 6.6 6.5 6.8 7.1 6.8 5.9 6.0 6.5 6.5 6.5 6.5 6.5 6.5 6.5 6.5 6.5 6.5 6.7 6.8 5.9 5.4 5.1 4.5 3.9 3.5 3.1 2.4 1.5 1.0 0.5 -0.0 -1.4 -1.6 -1.6 -0.7 -0.2 -3.4 -3.8 -4.0
3.2 4.1 5.2 4.5 3.9 0.7 -4.9 -4.6 -1.7 1.9 5.4 5.9 6.5 6.5 6.2 6.0 6.5 6.8 5.7 4.5 4.7 5.9 6.1 6.5 6.2 6.5 6.5 6.5 6.5 6.5 6.8 6.7 6.1 5.4 4.8 4.5 3.8 3.7 3.5 2.8 2.5 2.0 1.4 0.7 -0.3 -1.5 -1.4 -0.6 -0.2 -1.4 -3.1 -3.9 -2.4 -3.4
5.6 5.6 4.2 3.6 2.2 -3.4 -3.2 -1.7 -2.4 2.1 3.1 3.5 4.5 4.3 5.0 5.5 4.8 4.7 4.2 3.2 2.6 3.1 3.9 5.5 6.5 6.5 6.5 6.6 6.6 6.8 6.6 6.5 5.9 5.2 4.2 3.7 3.5 3.3 3.0 2.8 2.4 2.0 1.5 0.8 1.4 0.8 0.3 -0.3 -0.8 -1.1 -1.6 -0.3 -0.4 -1.3
3.9 3.1 3.3 1.9 -0.2 -3.9 -1.3 -1.0 -2.7 -0.2 2.7 3.8 3.1 2.7 4.0 4.5 3.6 3.6 3.6 2.5 3.5 3.8 6.2 6.5 6.5 6.6 6.5 5.8 5.8 5.4 5.8 5.5 5.5 5.4 5.1 4.5 4.0 3.9 3.9 3.6 2.8 1.8 1.4 1.5 2.3 3.2 0.9 0.9 0.5 -0.4 -0.9 -0.7 0.4 0.4
1.1 0.3 -0.6 -2.7 -6.5 -5.7 -3.8 -3.1 -0.5 0.1 0.0 1.7 2.0 2.2 1.0 1.3 2.5 2.3 1.9 2.0 3.5 5.2 6.3 6.2 5.9 5.2 4.9 4.5 4.4 4.6 4.3 4.3 4.0 4.0 4.2 4.4 4.3 4.3 3.8 3.5 3.3 3.6 3.6 3.7 3.6 4.0 3.8 2.2 1.8 2.2 2.4 3.1 2.0 1.8
-3.2 0.3 -5.6 -4.4 -4.1 -4.3 -2.2 -3.3 -0.8 -0.4 0.5 1.1 1.9 0.5 1.2 3.2 2.5 2.1 1.1 3.8 4.8 5.3 4.9 5.1 5.5 4.9 4.9 3.6 3.5 3.4 3.6 4.0 4.1 5.5 6.0 5.7 5.0 5.0 4.7 4.7 4.7 4.5 4.5 4.5 4.4 4.5 4.4 4.5 4.2 4.2 4.0 4.1 4.5 3.8
-1.2 -3.0 -5.2 -3.6 -0.4 -0.1 1.6 -2.1 0.9 -0.3 6.5 4.3 2.8 5.7 5.7 3.7 1.8 0.5 3.6 3.2 5.1 5.6 5.0 4.2 4.1 4.1 3.8 3.4 3.3 3.1 3.1 3.7 3.4 3.5 4.1 4.3 4.4 4.7 4.4 3.7 4.6 4.8 4.6 4.2 4.1 3.9 3.9 6.1 5.1 4.7 4.6 4.5 3.9 3.4
-2.4 -6.0 -3.7 -2.7 -0.6 3.4 -1.6 0.6 -0.8 0.9 0.4 5.7 6.5 6.5 5.7 2.7 0.9 2.8 6.5 5.2 5.8 5.4 4.3 3.8 4.8 4.9 4.6 3.8 3.4 2.9 2.6 3.4 3.5 2.8 2.3 3.7 3.4 2.6 2.6 2.4 2.4 3.3 4.0 4.3 4.5 4.5 4.2 4.5 5.5 4.5 4.1 3.6 3.6 3.9
0.6 1.7 0.6 5.1 -0.6 3.8 6.5 6.5 6.1 6.3 6.5 6.5 6.5 6.5 6.3 2.9 6.5 6.5 6.5 5.6 5.3 4.6 3.9 3.9 4.4 4.6 4.4 4.5 4.4 3.7 2.7 2.3 3.0 2.6 1.9 2.3 2.8 2.8 3.2 2.8 2.1 2.3 3.2 3.0 3.1 3.6 3.6 3.2 3.2 3.3 3.5 3.3 3.2 3.0
6.5 2.5 4.6 3.0 3.5 5.8 6.3 6.5 6.5 6.5 6.5 6.5 6.5 5.6 4.2 6.5 6.5 6.5 6.5 4.0 4.2 3.5 3.5 3.3 3.2 3.9 3.7 3.9 3.1 2.7 2.3 1.7 1.8 1.9 1.4 2.2 1.2 0.5 -0.5 0.9 1.2 2.7 2.3 2.3 2.3 1.9 2.5 3.2 3.1 2.2 2.5 3.3 6.0 3.2
6.5 5.5 2.1 4.8 4.4 4.9 5.8 5.6 5.3 6.3 6.5 6.5 6.5 6.5 6.5 6.5 6.5 6.1 4.5 2.3 2.6 2.2 2.3 2.4 2.3 2.1 2.2 2.4 3.0 2.5 1.7 0.7 0.5 1.3 1.5 2.6 2.1 1.4 1.8 1.2 1.2 3.2 3.4 3.0 2.6 2.6 2.7 3.4 3.7 3.6 2.9 2.4 2.8 2.8
0.7 0.9 6.1 1.5 1.2 2.1 5.2 5.6 6.5 6.5 6.5 5.5 5.2 6.5 6.5 6.5 6.5 2.1 0.5 -1.5 -2.8 -2.1 -1.4 -0.1 0.3 -0.0 0.5 1.0 0.7 0.2 -0.7 -0.6 -0.4 -0.4 0.8 1.9 1.4 1.4 1.5 2.1 2.7 6.2 4.2 3.2 4.4 2.6 2.8 3.9 4.3 3.9 3.6 3.5 3.5 3.6
0.8 2.2 1.9 1.3 0.2 1.7 2.3 4.3 4.1 4.4 4.8 2.7 5.6 6.5 3.3 1.7 -0.9 -1.7 -1.1 -2.0 -5.3 -4.4 -2.4 -1.5 -1.4 -2.7 -1.7 -0.7 -0.8 -0.8 -1.3 -0.6 2.3 2.6 3.0 3.6 3.2 4.0 3.0 2.4 2.2 1.9 1.1 -0.7 5.7 7.1 6.4 7.6 6.0 5.0 2.0 1.1 1.3 0.8
1.4 0.5 1.8 -0.8 4.8 6.5 0.9 -0.0 -1.1 -1.8 0.9 2.9 2.4 1.4 0.9 -1.2 -3.4 -5.4 -4.1 -4.9 -4.3 -3.9 -5.1 -5.4 -5.2 -6.4 -3.7 -3.5 -2.4 -1.7 -2.1 -2.4 -1.9 0.5 0.9 1.4 1.8 2.1 1.6 1.8 2.0 0.9 -0.2 -0.5 -1.1 -1.3 5.4 1.8 1.0 -1.8 -1.4 -0.8 0.1 1.8
0.4 -1.4 -0.1 0.2 1.7 -1.6 -3.3 -3.7 -4.9 0.4 -2.8 -4.5 -4.1 -1.4 -0.2 -2.4 -2.8 -4.7 -5.0 -5.7 -7.0 -8.8 -6.9 -5.5 -6.0 -7.9 -5.6 -4.4 -4.5 -3.7 -0.9 -2.4 -2.8 -2.2 -0.9 0.2 0.2 0.8 1.6 2.2 3.4 1.7 0.0 -0.6 -1.4 -1.4 -1.7 -1.4 -2.3 -2.6 -1.4 -1.9 -1.2 1.6
-0.8 -3.2 0.6 6.2 1.0 -3.6 -5.6 -5.5 -5.3 -4.0 -5.3 -3.8 -2.2 -6.1 -3.7 -2.3 -0.9 -2.3 -5.5 -8.0 -6.7 -4.8 -1.4 -4.2 -5.0 -1.7 -2.8 -2.5 -2.6 -2.5 1.9 1.0 -1.2 -1.6 -1.4 -0.3 0.4 1.8 2.5 3.0 3.6 -0.3 -1.0 -1.1 -1.5 -1.4 -1.4 -1.8 -1.1 -0.9 -0.3 -0.8 -1.1 -1.2
-5.6 -5.8 -5.5 -2.4 -1.3 -0.3 -2.2 -2.5 -1.9 -2.1 -3.2 -2.5 -2.2 -4.4 -5.5 -2.4 0.5 -1.3 -6.0 -6.7 -3.5 -3.2 -2.6 -3.0 -3.4 -3.5 -3.5 -4.1 -3.3 -2.8 0.2 -1.9 -2.9 2.7 5.2 6.6 8.4 8.1 7.6 4.3 3.5 3.6 2.1 1.3 0.8 0.3 0.1 -0.1 -0.7 -1.2 -1.0 -1.2 -1.4 -1.6
Wind_Speed
45 45 44 44 43 42 41 40 38 36 35 33 32 29 28 28 27 13 9 8 4 6 10 10 7 9 6 4 5 5 3 3 3 6 7 5 5 8 4 5 7 11 10 5 3 5 14 6 5 9 4 2 5 5
45 45 45 44 43 41 40 38 37 34 33 33 32 31 30 27 27 24 11 9 6 7 7 4 10 19 22 24 5 4 7 8 5 5 3 3 3 3 6 6 1 5 7 6 10 7 1 16 2 3 3 5 5 7
45 44 44 44 42 40 34 36 34 33 32 32 31 30 30 27 27 22 11 10 3 6 10 8 13 23 17 20 16 8 4 7 6 2 4 3 5 5 6 6 4 4 3 3 2 5 5 12 1 3 3 4 6 8
43 41 39 38 34 30 29 32 32 32 30 32 32 28 28 26 26 23 9 6 3 4 3 7 2 6 7 15 17 21 19 11 4 3 3 3 3 5 4 3 6 4 10 7 5 3 1 6 7 7 6 10 13 10
39 37 36 35 31 26 26 28 31 30 29 31 33 23 27 23 23 20 9 8 8 8 3 4 6 15 7 7 13 15 16 14 6 4 3 5 3 4 2 2 3 5 7 6 7 8 3 2 12 12 13 11 13 17
32 33 33 31 29 25 18 19 19 15 19 21 16 22 18 19 21 6 4 5 9 8 5 3 3 4 4 8 12 16 12 11 7 3 5 3 1 4 5 6 4 7 4 2 4 4 6 8 7 7 13 13 13 13
30 32 32 31 27 20 15 14 12 11 11 10 12 14 17 19 7 5 4 2 2 2 2 4 4 2 3 4 3 3 3 3 6 3 3 4 3 4 2 6 5 4 5 5 8 10 6 2 6 14 17 16 17 15
26 28 25 23 22 19 17 16 15 15 16 17 18 18 18 22 19 9 9 24 17 3 2 3 4 3 3 3 3 3 3 2 1 2 2 2 3 2 3 3 4 5 8 6 5 4 7 15 16 15 16 17 17 14
24 23 23 23 22 21 20 19 19 19 19 18 18 20 11 4 3 2 8 4 1 3 3 3 3 3 1 1 2 2 1 3 1 2 3 4 3 2 5 3 1 3 1 8 9 12 14 16 16 15 16 14 16 12
21 22 24 26 26 25 24 23 24 20 19 21 9 3 2 2 6 6 1 2 1 3 2 3 1 3 2 1 1 1 1 2 1 1 2 2 3 3 9 6 4 5 10 12 15 10 14 14 14 14 13 11 12 11
22 23 25 26 27 27 28 26 25 25 19 1 2 2 2 8 2 2 2 2 1 3 2 2 1 2 1 2 2 2 3 1 2 2 2 3 3 4 9 8 7 6 5 4 9 12 10 14 14 13 12 11 11 11
22 23 24 25 29 30 23 20 26 8 2 3 2 1 2 1 2 3 2 2 1 3 4 2 3 2 2 2 1 3 2 2 3 2 3 3 2 5 7 8 8 7 9 11 13 15 14 13 11 12 11 11 9 10
22 24 25 21 27 26 28 26 20 19 7 1 1 2 2 2 3 5 7 2 4 5 3 3 3 2 1 2 2 2 3 2 1 3 3 2 2 5 6 6 9 9 11 14 15 15 15 13 11 11 10 8 9 9
23 23 21 22 31 31 28 24 21 7 2 3 4 6 5 4 3 2 4 4 3 3 6 3 2 2 2 3 2 3 2 1 3 3 3 2 3 4 5 6 7 9 10 12 12 12 12 12 11 10 8 7 8 8
25 22 12 20 32 33 30 22 12 3 2 4 4 5 4 4 3 5 5 4 2 4 5 2 1 1 2 3 2 1 3 5 5 3 2 2 4 5 6 7 8 8 8 9 9 10 10 10 10 9 6 6 7 6
23 10 7 31 33 32 21 10 4 2 3 3 6 4 5 4 6 7 6 5 4 8 3 2 1 3 5 3 5 7 4 7 4 3 3 3 5 6 7 7 7 7 7 8 7 8 8 7 7 6 5 5 5 5
11 3 22 31 32 21 17 3 3 5 4 4 3 1 4 3 5 7 6 6 8 4 3 2 6 4 2 5 5 5 3 3 4 4 4 5 5 6 6 7 7 7 7 6 6 6 5 5 5 4 6 2 4 4
2 10 24 30 24 5 3 4 3 4 5 2 2 4 4 1 5 5 7 7 6 5 4 4 3 9 6 4 3 3 2 1 3 4 4 5 6 6 6 7 6 6 6 6 6 4 4 5 5 2 3 3 3 2
15 18 22 23 10 3 4 5 4 3 1 2 3 2 2 2 1 2 7 7 2 2 3 4 7 4 3 3 2 4 4 3 3 3 3 6 5 6 6 6 6 6 6 4 3 3 3 3 2 2 2 2 2 2
12 8 24 14 8 3 5 3 2 4 1 2 2 3 2 2 4 4 6 7 4 3 8 6 4 2 3 2 3 4 5 3 1 2 3 4 4 5 5 4 4 4 4 4 3 5 2 2 1 2 2 2 2 1
10 9 14 7 4 5 4 2 4 1 2 2 3 2 2 2 3 6 7 7 6 4 3 2 2 2 3 2 3 3 4 4 3 1 1 2 3 4 4 4 3 2 2 2 2 2 4 1 0 1 0 1 1 1
3 13 3 5 4 4 4 2 1 3 2 2 3 2 3 3 4 3 3 7 3 2 2 2 3 3 4 5 5 6 5 6 8 6 9 5 2 3 4 3 2 3 3 3 2 2 2 2 1 1 1 0 2 1
7 6 4 6 5 6 3 3 5 6 4 4 3 4 3 3 1 2 3 2 1 2 3 2 3 2 2 3 4 7 8 7 5 5 5 4 5 4 4 5 4 3 3 3 2 2 2 4 4 2 2 2 2 2
9 5 6 4 5 3 3 5 3 4 3 4 4 4 4 3 3 4 3 2 2 3 4 6 4 1 2 4 5 5 6 4 4 5 5 4 4 4 4 3 3 3 3 1 2 2 2 2 5 3 2 2 2 1
6 8 5 7 4 6 7 6 6 6 3 3 4 4 4 3 3 3 2 1 2 3 4 5 4 4 3 2 2 3 5 4 3 3 4 3 1 1 2 3 2 3 3 3 3 2 2 2 2 2 2 1 3 3
7 4 5 3 4 4 3 5 5 4 2 4 3 3 2 2 4 2 1 1 2 2 3 4 4 3 3 3 2 3 4 4 2 2 2 3 2 2 1 2 2 2 1 1 1 2 2 2 2 3 3 5 9 3
5 4 3 3 2 3 3 3 3 3 4 5 4 5 4 4 3 2 1 1 1 1 2 3 2 2 2 3 2 3 3 2 1 0 1 1 1 1 2 1 1 3 3 2 1 2 2 3 4 4 4 3 3 4
2 3 2 5 3 2 2 3 3 3 3 4 2 5 2 0 2 2 2 2 2 2 3 2 1 2 2 2 2 4 3 3 2 2 1 2 2 0 2 2 3 8 4 4 3 2 3 4 4 4 4 4 5 3
3 4 1 5 4 4 2 1 1 1 2 1 1 2 2 2 2 1 2 1 1 1 2 2 2 3 2 2 2 1 2 3 1 1 2 2 2 1 2 3 3 2 2 2 8 7 7 4 3 1 3 3 3 3
4 2 2 2 3 2 3 2 2 2 2 1 2 2 2 2 2 1 1 1 1 2 2 2 2 1 2 2 3 3 1 0 2 2 2 3 3 3 4 4 4 3 2 2 3 4 9 4 6 4 4 3 3 3
2 2 2 1 1 2 2 2 2 2 2 1 1 2 3 3 3 2 2 1 1 1 2 3 3 2 2 2 1 2 3 1 2 3 4 4 5 5 5 5 4 3 2 1 2 2 2 3 2 3 5 5 6 5
3 2 1 3 3 2 2 2 1 1 2 2 2 1 3 2 2 2 2 2 2 1 3 1 2 3 3 3 3 3 10 5 3 3 6 5 5 7 5 6 5 2 2 2 2 2 2 3 4 4 4 7 6 6
2 1 1 1 3 4 3 3 3 4 2 2 2 1 2 1 3 3 1 3 3 2 3 3 3 4 5 6 6 5 8 4 11 15 16 16 15 13 9 3 3 3 3 4 4 3 5 5 5 6 6 6 7 7
Wind_Direction
300 299 296 290 286 284 281 280 278 277 275 275 274 275 275 276 276 279 277 221 239 275 260 233 237 228 221 200 262 305 239 270 107 189 192 187 173 204 158 164 175 174 168 188 193 216 252 140 76 187 197 56 136 124
305 302 300 296 289 281 280 277 275 273 272 271 271 272 273 274 273 275 274 253 250 263 262 211 240 246 244 245 181 221 287 302 186 174 189 128 170 139 154 217 207 209 190 179 190 211 146 185 196 145 132 142 172 130
310 308 304 301 297 293 275 277 274 272 272 269 267 268 271 272 271 271 274 264 242 274 258 248 245 254 239 223 220 242 232 227 284 264 157 167 201 141 176 226 150 245 174 198 124 217 211 203 67 138 130 130 117 123
313 312 313 314 309 300 284 279 277 270 267 269 265 265 269 271 270 276 274 262 246 272 267 258 160 237 248 219 211 205 239 257 279 263 156 156 180 185 191 181 189 180 145 171 264 240 224 237 194 151 108 105 107 106
317 317 317 315 312 304 296 295 281 275 270 275 274 257 268 269 277 283 272 256 236 234 278 271 320 259 207 194 217 216 219 225 212 215 204 201 134 128 119 99 206 193 171 174 216 201 180 183 173 143 141 140 131 121
326 329 325 321 320 313 299 331 331 311 300 285 267 255 263 272 281 295 275 233 228 208 252 259 288 232 162 205 230 226 211 218 214 196 209 196 170 152 170 202 197 183 170 164 174 89 80 77 73 105 118 118 113 110
334 337 334 331 328 325 337 336 338 330 325 306 271 281 284 282 273 246 257 187 282 93 255 277 247 237 207 220 215 223 173 211 207 190 223 146 177 149 137 222 179 134 111 97 110 117 83 159 139 117 115 111 104 99
336 336 340 349 359 359 353 344 334 326 317 312 302 292 285 284 288 269 248 252 249 165 162 249 267 329 167 210 233 212 174 186 207 142 156 135 105 101 229 58 72 93 96 71 43 41 103 116 115 115 118 121 113 115
335 337 340 342 340 337 331 324 315 309 302 298 296 292 291 246 233 221 302 280 207 174 222 220 198 272 30 283 299 251 140 172 4 184 180 140 147 161 19 1 203 167 173 127 97 103 116 118 125 126 122 120 121 129
333 334 337 340 338 332 327 326 320 313 307 304 298 248 251 230 321 301 298 245 222 206 230 244 268 253 135 241 273 227 73 91 160 36 301 104 78 69 356 344 91 107 128 131 114 118 124 124 129 126 126 126 127 130
331 335 337 338 333 329 330 328 316 292 288 180 244 238 346 341 297 239 255 199 235 290 324 318 269 293 235 204 257 286 107 31 66 1 9 54 54 14 355 31 42 51 59 63 91 103 112 122 125 122 116 116 120 126
333 336 338 348 357 356 349 348 345 347 17 311 300 305 302 251 254 254 222 268 252 282 331 342 316 309 290 290 327 338 98 84 91 310 53 59 40 9 15 25 32 41 67 78 91 102 102 101 104 107 115 120 118 118
336 336 343 352 350 343 345 343 333 330 320 293 287 298 319 1 8 11 344 356 334 349 3 326 307 314 305 5 45 12 58 89 166 49 65 42 34 28 25 35 48 53 70 79 83 87 91 94 100 114 113 107 110 106
336 338 345 355 341 340 341 338 340 348 342 351 358 19 31 7 356 325 301 285 294 294 317 316 314 332 341 39 24 45 9 82 74 60 54 32 46 40 43 44 64 63 71 80 84 89 93 96 92 86 91 103 110 109
338 337 340 347 341 339 335 338 350 31 53 41 23 28 16 319 278 291 294 297 320 310 302 283 261 5 7 65 44 43 42 53 38 53 37 20 51 57 52 52 60 63 66 70 76 86 88 92 94 89 77 89 103 111
339 347 355 339 334 337 341 348 25 51 42 59 38 360 330 315 331 343 338 319 341 324 282 270 19 64 40 35 39 13 39 25 18 9 358 35 60 64 69 67 68 70 72 77 75 82 86 92 102 105 85 73 83 100
359 10 334 340 335 341 10 54 40 46 76 37 19 345 332 310 309 327 328 323 322 306 17 10 42 13 310 46 38 22 42 335 333 359 10 27 63 70 79 80 76 78 78 78 81 77 82 94 102 91 96 46 67 74
311 316 337 344 345 5 27 31 72 59 62 29 1 330 316 290 328 340 335 334 346 359 10 43 32 34 35 41 43 10 356 22 30 16 19 34 54 62 75 87 82 86 86 79 83 81 83 82 86 87 111 125 99 77
316 328 340 347 359 72 50 16 41 83 309 309 306 326 310 303 94 323 339 339 333 348 56 39 52 38 33 24 345 342 353 12 31 20 21 26 42 69 77 76 78 75 75 67 65 74 78 66 98 134 142 148 149 182
336 345 352 0 22 65 48 7 38 78 60 301 336 344 322 348 327 341 350 4 14 50 39 42 32 4 342 323 326 311 322 325 334 46 45 35 28 57 62 73 78 89 82 84 104 112 93 77 73 134 152 162 134 204
354 344 355 24 35 59 92 357 26 137 300 44 306 12 315 3 11 6 8 358 52 38 58 29 332 308 329 312 327 327 352 4 7 24 105 60 27 59 64 62 66 68 77 77 77 53 80 77 255 175 181 60 185 196
305 347 28 10 62 26 77 331 145 284 50 275 16 30 31 17 351 8 320 39 56 9 4 330 333 342 9 12 359 9 356 19 29 49 61 75 53 59 56 52 61 68 62 59 58 55 54 42 87 111 120 323 28 42
355 22 33 14 61 38 298 4 48 1 39 328 358 33 16 4 303 345 67 69 80 348 324 313 317 335 22 349 18 27 19 29 41 33 35 46 49 47 55 39 35 57 65 41 30 39 30 36 13 69 28 44 32 15
39 46 37 42 27 345 344 13 20 16 22 22 20 7 350 316 331 55 72 47 346 343 359 352 358 17 19 20 32 19 2 358 35 37 17 34 59 39 44 40 30 29 25 15 28 39 30 17 31 30 29 25 2 315
60 350 42 356 349 20 21 2 350 23 9 344 20 359 347 356 54 51 61 336 352 2 357 354 10 27 31 10 20 25 21 13 22 53 6 6 57 66 60 58 32 26 16 43 20 19 358 7 17 15 5 322 279 274
64 319 49 320 324 48 351 6 5 348 344 345 360 302 342 40 54 32 352 312 343 341 353 2 351 344 12 17 345 359 356 351 339 74 349 5 16 113 119 68 14 333 16 354 346 350 343 341 347 339 314 324 330 21
49 336 328 27 310 309 1 3 357 33 15 7 346 332 349 50 7 296 7 359 310 350 325 318 328 327 324 333 335 343 330 354 335 217 307 3 38 44 97 75 328 281 309 320 310 252 270 299 305 300 293 294 257 254
155 27 358 317 23 9 94 31 33 17 325 335 324 15 70 198 265 265 231 259 239 304 294 289 341 348 312 340 340 334 329 333 299 275 267 277 235 246 10 331 310 348 11 314 275 245 252 264 275 281 288 287 292 267
26 340 53 2 3 37 60 115 252 282 348 92 57 306 284 242 238 241 278 283 336 2 343 339 319 342 314 290 274 303 338 348 38 310 268 273 320 296 342 327 317 320 336 329 340 351 319 334 334 198 234 274 281 301
330 356 39 15 64 359 255 186 241 259 239 224 264 298 283 277 251 218 256 334 353 267 243 246 284 326 286 318 309 313 266 52 53 115 199 248 250 303 309 302 301 294 297 314 327 323 336 7 347 358 355 337 329 306
325 28 49 32 229 253 239 291 307 266 11 322 303 206 259 297 303 229 207 209 143 45 352 316 308 237 241 278 253 323 315 273 234 277 267 261 264 271 275 272 274 267 267 262 296 295 309 326 318 317 320 321 313 333
360 65 49 352 303 291 18 33 324 335 317 356 284 319 319 352 302 284 209 116 61 320 278 226 256 285 228 248 251 250 268 287 284 275 284 272 269 267 268 267 254 210 208 244 258 257 274 275 288 289 290 292 293 290
12 12 301 342 339 354 329 18 8 342 342 332 294 233 228 209 253 276 279 208 213 230 261 256 256 262 262 256 253 268 286 280 288 288 290 291 294 282 283 213 197 199 217 248 256 255 266 266 269 270 277 274 279 281